This is the latest recevied weather packets stored in our database for station/object IZ6UQU-13. If no packets are shown the sender has not sent any weather packets the latest 10 day(s).
| Time | Temp. | Humidity | Pressure | Rain* | Wind** | Luminosity | Snow |
|---|---|---|---|---|---|---|---|
| 1777719907 | 16.67° C | 37% | 962.6 hPa | 0 mm | - | - | - |
| 1777719607 | 16.11° C | 36% | 962.7 hPa | 0 mm | - | - | - |
| 1777719307 | 16.11° C | 36% | 962.8 hPa | 0 mm | - | - | - |
| 1777719007 | 16.11° C | 36% | 962.7 hPa | 0 mm | - | - | - |
| 1777718707 | 16.11° C | 36% | 962.9 hPa | 0 mm | - | - | - |
| 1777718407 | 15.56° C | 36% | 962.9 hPa | 0 mm | - | - | - |
| 1777718107 | 15.56° C | 38% | 963 hPa | 0 mm | - | - | - |
| 1777717807 | 15.56° C | 41% | 963 hPa | 0 mm | - | - | - |
| 1777717507 | 15.56° C | 45% | 963.1 hPa | 0 mm | - | - | - |
| 1777717207 | 15.56° C | 45% | 963.2 hPa | 0 mm | - | - | - |
| 1777716907 | 16.11° C | 44% | 963.2 hPa | 0 mm | - | - | - |
| 1777716607 | 16.11° C | 44% | 963.1 hPa | 0 mm | - | - | - |
| 1777716307 | 15.56° C | 43% | 963.3 hPa | 0 mm | - | - | - |
| 1777716007 | 16.11° C | 43% | 963.2 hPa | 0 mm | - | - | - |
| 1777715707 | 15.56° C | 42% | 963.3 hPa | 0 mm | - | - | - |
| 1777715407 | 15.56° C | 44% | 963.4 hPa | 0 mm | - | - | - |
| 1777715107 | 15° C | 44% | 963.4 hPa | 0 mm | - | - | - |
| 1777714807 | 15° C | 45% | 963.4 hPa | 0 mm | - | - | - |
| 1777714506 | 15° C | 44% | 963.5 hPa | 0 mm | - | - | - |
| 1777714207 | 15° C | 43% | 963.5 hPa | 0 mm | - | - | - |
| 1777713906 | 15° C | 43% | 963.4 hPa | 0 mm | - | - | - |
| 1777713606 | 15° C | 44% | 963.5 hPa | 0 mm | - | - | - |
| 1777713306 | 15° C | 44% | 963.4 hPa | 0 mm | - | - | - |
| 1777713006 | 15° C | 46% | 963.6 hPa | 0 mm | - | - | - |
| 1777712706 | 15° C | 47% | 963.6 hPa | 0 mm | - | - | - |
* Rain latest hour (hover to see other rain measurements)
** Current wind speed in m/s (hover to see current wind gust speed)